[[{"header":{"parameterUnit":"m.s-1","parameterCategory":1,"la1":30.2991,"la2":30.254,"lo1":-89.0895,"lo2":-89.0444,"dy":0.0017,"dx":0.0017,"nx":28,"ny":28,"refTime":"2023-09-19T09:00:00:Z","depth":0,"parameterNumber":2,"parameterNumberName":"U-component_of_WINDS"},"data":[0,0,0,0,0,0,0,0,0,0,0,0,0,0,0,0,0,0,0,0,0,0,0,0,0,0,0,0,0,0,0,0,0,0,0,0,0,0,0,0,0,0,0,0,0,0,0,0,0,0,0,0,0,0,0,0,0,0,-5.4297,-5.4299,0,-5.4516,-5.4519,-5.4521,-5.4495,-5.4492,-5.4488,-5.4485,-5.4703,-5.4711,-5.472,0,0,0,0,0,0,0,0,0,0,0,0,0,-5.385,-5.3858,-5.4297,-5.4299,-5.4302,-5.4516,-5.4519,-5.4522,-5.4496,-5.4491,-5.4487,-5.4483,-5.47,-5.471,-5.4721,0,0,0,0,0,0,0,0,0,0,0,0,0,-5.4054,-5.3861,-5.4296,-5.4315,-5.4319,-5.4515,-5.4519,-5.4523,-5.4497,-5.4491,-5.4486,-5.4481,-5.4696,-5.4709,-5.4723,-5.4912,0,0,-5.4764,-5.477,0,0,0,0,0,0,0,0,-5.4042,-5.407,-5.431,-5.4314,-5.4319,-5.4473,-5.4441,-5.4653,-5.4498,-5.4429,-5.4485,-5.4479,-5.463,-5.4649,-5.4701,-5.4922,-5.4931,-5.4765,-5.4774,-5.4779,-5.4783,0,0,0,0,0,0,0,-5.4028,-5.406,-5.4383,-5.4313,-5.4319,-5.4311,-5.4334,-5.4481,-5.4556,-5.4435,-5.4433,-5.446,-5.4631,-5.4688,-5.4706,-5.4935,-5.4765,-5.4777,-5.4785,-5.4791,-5.5324,-5.5329,0,0,0,0,0,0,-5.401,-5.4049,-5.4376,-5.439,-5.4165,-5.4323,-5.4349,-5.4429,-5.4554,-5.4569,-5.4464,-5.4458,-5.4667,-5.469,-5.4714,-5.4945,-5.4779,-5.4792,-5.48,-5.5318,-5.5325,-5.5331,0,0,0,0,0,0,-5.4001,-5.404,-5.4367,-5.4219,-5.426,-5.4337,-5.4426,-5.4436,-5.4493,-5.4577,-5.4589,-5.4509,-5.4664,-5.4694,-5.4864,-5.4952,-5.4798,-5.4811,-5.5311,-5.532,-5.5328,-5.5408,0,0,0,0,0,0,-5.3988,-5.4036,-5.411,-5.4221,-5.4269,-5.4516,-5.4432,-5.4444,-5.4517,-5.4511,-5.4622,-5.4635,-5.4662,-5.4844,-5.4877,-5.4968,-5.4821,-5.5303,-5.5315,-5.5325,-5.5398,-5.5419,-5.5437,0,0,0,0,0,-5.3972,-5.4122,-5.4114,-5.4154,-5.4363,-5.4521,-5.4548,-5.4578,-5.4524,-5.4598,-5.4653,-5.4632,-5.4937,-5.4861,-5.4899,-5.4995,-5.5297,-5.5311,-5.5324,-5.5389,-5.5415,-5.5436,0,0,0,0,0,0,-5.4016,-5.4137,-5.4129,-5.432,-5.4411,-5.4516,-5.4611,-5.4603,-5.4709,-5.4699,-5.4729,-5.4755,-5.4926,-5.4977,-5.489,-5.5186,-5.511,-5.5131,-5.5146,-5.5171,-5.519,-5.5174,-5.4833,0,0,0,0,0,-5.4048,-5.4169,-5.4267,-5.4425,-5.4472,-5.4534,-5.4603,-5.4619,-5.4713,-5.4751,-5.4818,-5.4908,-5.5025,-5.51,-5.5212,-5.5405,-5.5429,-5.549,-5.5509,-5.5525,-5.5543,-5.5651,-5.5679,-5.5376,-5.5376,-5.5375,0,0,-5.4115,-5.4196,-5.427,-5.4437,-5.4509,-5.4632,-5.4566,-5.4698,-5.4789,-5.477,-5.4935,-5.4988,-5.509,-5.5273,-5.5357,-5.5321,-5.5633,-5.5542,-5.5554,-5.5564,-5.5667,-5.5696,-5.5722,-5.5385,-5.5383,-5.5382,0,0,-5.4301,-5.4374,-5.4516,-5.459,-5.4702,-5.4742,-5.4776,-5.4884,-5.4919,-5.5086,-5.5075,-5.5182,-5.5382,-5.5457,-5.5521,-5.5737,-5.5722,-5.5772,-5.5873,-5.5978,-5.6002,-5.6023,-5.6102,-5.6129,-5.579,-5.5791,-5.5791,0,-5.4369,-5.4556,-5.4588,-5.4724,-5.4797,-5.4789,-5.4932,-5.5002,-5.5143,-5.5193,-5.5152,-5.5404,-5.5473,-5.5674,-5.5727,-5.5779,-5.5818,-5.576,-5.5996,-5.6018,-5.6038,-5.6113,-5.6143,-5.5796,-5.5796,-5.5795,-5.5794,0,-5.4635,-5.4765,-5.4866,-5.5006,-5.5091,-5.5229,-5.5281,-5.5363,-5.5372,-5.5416,-5.5586,-5.5669,-5.5798,-5.5847,-5.5855,-5.605,-5.6024,-5.5989,-5.5914,-5.6072,-5.6143,-5.6172,-5.5804,-5.5802,-5.58,-5.5799,0,0,-5.4853,-5.5012,-5.5049,-5.5113,-5.5237,-5.5337,-5.5474,-5.5604,-5.5674,-5.5771,-5.5888,-5.6058,-5.6028,-5.61,-5.6117,-5.6209,-5.6377,-5.6163,-5.6165,-5.62,-5.6598,-5.6624,-5.6657,-5.6368,-5.6373,-5.6378,-5.6589,0,-5.5051,-5.5298,-5.5332,-5.555,-5.5671,-5.5666,-5.5786,-5.5874,-5.592,-5.6027,-5.6076,-5.6198,-5.6147,-5.6192,-5.6282,-5.6337,-5.6457,-5.6322,-5.6475,-5.648,-5.6451,-5.6694,-5.6721,-5.6917,-5.6617,-5.6622,-5.6625,0,-5.5315,-5.5425,-5.5655,-5.5765,-5.5817,-5.5925,-5.6047,-5.615,-5.625,-5.6277,-5.636,-5.6366,-5.6507,-5.6426,-5.6622,-5.653,-5.6594,-5.6631,-5.6639,-5.6655,-5.6563,-5.6716,-5.698,-5.7009,-5.6669,-5.6666,-5.6662,0,-5.5452,-5.5657,-5.5822,-5.5877,-5.6009,-5.6085,-5.6143,-5.6238,-5.6314,-5.642,-5.647,-5.659,-5.6656,-5.6748,-5.6786,-5.6724,-5.698,-5.6902,-5.7006,-5.7005,-5.706,-5.7056,-5.7338,-5.7101,-5.71,-5.71,-5.7099,0,-5.567,-5.5812,-5.5886,-5.5987,-5.6146,-5.6183,-5.6338,-5.6393,-5.6478,-5.6589,-5.6591,-5.6695,-5.6739,-5.685,-5.688,-5.7038,-5.7067,-5.7092,-5.7099,-5.7093,-5.709,-5.7135,-5.7123,-5.7108,-5.7106,-5.7104,-5.7103,0,-5.585,-5.5905,-5.6085,-5.6197,-5.6228,-5.634,-5.6434,-5.6532,-5.6578,-5.6719,-5.6754,-5.6825,-5.6955,-5.7003,-5.716,-5.7181,-5.7364,-5.7359,-5.7332,-5.7333,-5.7435,-5.7425,-5.7757,-5.7803,-5.7535,-5.7537,-5.7539,0,-5.5986,-5.6095,-5.622,-5.6296,-5.6358,-5.648,-5.6559,-5.66,-5.6682,-5.6806,-5.6889,-5.7019,-5.7126,-5.7334,-5.7399,-5.752,-5.7518,-5.7626,-5.7536,-5.7527,-5.7521,-5.7514,-5.7526,-5.7642,-5.7645,-5.7647,-5.7649,0,-5.6221,-5.6244,-5.6359,-5.6486,-5.6581,-5.6682,-5.6779,-5.684,-5.6896,-5.6988,-5.7123,-5.7206,-5.7369,-5.7499,-5.7624,-5.7681,-5.7675,-5.7678,-5.7708,-5.7703,-5.7683,-5.7697,-5.7378,-5.7669,-5.7667,-5.7666,-5.7665,-5.7664,-5.6384,-5.6482,-5.6586,-5.6715,-5.6793,-5.6885,-5.6983,-5.7043,-5.7158,-5.7296,-5.7312,-5.7458,-5.7556,-5.7724,-5.7787,-5.79,-5.7871,-5.7915,-5.7926,-5.7937,-5.7945,-5.7666,-5.7923,-5.7922,-5.7922,-5.7922,-5.7921,0,-5.662,-5.6688,-5.6806,-5.6945,-5.7046,-5.7035,-5.7142,-5.7227,-5.7357,-5.745,-5.7557,-5.7713,-5.7839,-5.7915,-5.8041,-5.8118,-5.8118,-5.815,-5.8145,-5.8158,-5.7963,-5.7925,-5.8148,-5.8148,-5.8147,-5.8147,-5.8147,-5.8147,-5.6755,-5.6921,-5.6957,-5.7162,-5.7227,-5.7373,-5.7435,-5.752,-5.7595,-5.7771,-5.7877,-5.7927,-5.8013,-5.8147,-5.8262,-5.8281,-5.8328,-5.8362,-5.8378,-5.8195,-5.8172,-5.8149,-5.8113,-5.8372,-5.8372,-5.8564,-5.8566,-5.8567]},{"header":{"parameterUnit":"m.s-1","parameterCategory":1,"la1":30.2991,"la2":30.254,"lo1":-89.0895,"lo2":-89.0444,"dy":0.0017,"dx":0.0017,"nx":28,"ny":28,"refTime":"2023-09-19T09:00:00:Z","depth":0,"parameterNumber":3,"parameterNumberName":"V-component_of_WINDS"},"data":[0,0,0,0,0,0,0,0,0,0,0,0,0,0,0,0,0,0,0,0,0,0,0,0,0,0,0,0,0,0,0,0,0,0,0,0,0,0,0,0,0,0,0,0,0,0,0,0,0,0,0,0,0,0,0,0,0,0,-2.29,-2.2898,0,-2.2757,-2.2755,-2.2754,-2.2628,-2.2627,-2.2625,-2.2624,-2.2477,-2.2474,-2.2472,0,0,0,0,0,0,0,0,0,0,0,0,0,-2.3064,-2.3061,-2.29,-2.2898,-2.2896,-2.2757,-2.2755,-2.2753,-2.2628,-2.2626,-2.2625,-2.2623,-2.2478,-2.2475,-2.2472,0,0,0,0,0,0,0,0,0,0,0,0,0,-2.2964,-2.3061,-2.29,-2.2817,-2.2808,-2.2758,-2.2755,-2.2753,-2.2629,-2.2626,-2.2624,-2.2622,-2.2479,-2.2475,-2.2471,-2.2491,0,0,-2.2459,-2.2458,0,0,0,0,0,0,0,0,-2.297,-2.2958,-2.2831,-2.2823,-2.2813,-2.2708,-2.2759,-2.2665,-2.2629,-2.2697,-2.2624,-2.2621,-2.2556,-2.2545,-2.2523,-2.2484,-2.2478,-2.2459,-2.2457,-2.2455,-2.2454,0,0,0,0,0,0,0,-2.2977,-2.2963,-2.2843,-2.2829,-2.2818,-2.2787,-2.277,-2.2741,-2.264,-2.2691,-2.2681,-2.2666,-2.255,-2.2527,-2.2519,-2.2476,-2.2459,-2.2456,-2.2453,-2.2452,-2.2446,-2.2448,0,0,0,0,0,0,-2.2997,-2.297,-2.2848,-2.2839,-2.2888,-2.2786,-2.2767,-2.2744,-2.264,-2.2622,-2.2668,-2.2661,-2.2535,-2.2523,-2.2513,-2.253,-2.2455,-2.2452,-2.2449,-2.2444,-2.2446,-2.2449,0,0,0,0,0,0,-2.3001,-2.2987,-2.2853,-2.2902,-2.2882,-2.2785,-2.276,-2.2742,-2.2719,-2.2623,-2.2604,-2.2663,-2.2533,-2.2519,-2.2497,-2.2523,-2.245,-2.2446,-2.2441,-2.2445,-2.2448,-2.2564,0,0,0,0,0,0,-2.3006,-2.2989,-2.2996,-2.2903,-2.288,-2.2841,-2.2762,-2.2741,-2.2713,-2.2702,-2.2613,-2.2597,-2.253,-2.2504,-2.2494,-2.2516,-2.2443,-2.2439,-2.2443,-2.2447,-2.2557,-2.257,-2.2582,0,0,0,0,0,-2.3012,-2.3034,-2.2997,-2.2983,-2.2887,-2.2842,-2.2829,-2.2752,-2.2715,-2.2721,-2.266,-2.26,-2.2522,-2.2503,-2.249,-2.2512,-2.2437,-2.2442,-2.2446,-2.2551,-2.2568,-2.2581,0,0,0,0,0,0,-2.3131,-2.302,-2.2978,-2.297,-2.2917,-2.2821,-2.2826,-2.2772,-2.2728,-2.2719,-2.2625,-2.2606,-2.2596,-2.2551,-2.2532,-2.2526,-2.2471,-2.2474,-2.2555,-2.257,-2.2582,-2.2593,-2.244,0,0,0,0,0,-2.3157,-2.3131,-2.3034,-2.3037,-2.3013,-2.2925,-2.2902,-2.2848,-2.2788,-2.2765,-2.2702,-2.2647,-2.2609,-2.2587,-2.2548,-2.255,-2.2529,-2.2559,-2.2571,-2.2582,-2.2585,-2.2583,-2.2596,-2.2465,-2.2465,-2.2464,0,0,-2.3209,-2.3145,-2.3134,-2.3059,-2.3012,-2.2987,-2.2906,-2.2883,-2.2863,-2.2761,-2.2738,-2.269,-2.2622,-2.2613,-2.2605,-2.2575,-2.2617,-2.2588,-2.2597,-2.2594,-2.259,-2.2602,-2.2613,-2.2468,-2.2467,-2.2467,0,0,-2.3292,-2.324,-2.3237,-2.3191,-2.312,-2.3062,-2.3061,-2.2974,-2.2938,-2.2913,-2.2837,-2.2812,-2.275,-2.2705,-2.2674,-2.2741,-2.2684,-2.273,-2.2795,-2.2795,-2.2805,-2.2814,-2.2838,-2.2848,-2.2734,-2.2734,-2.2734,0,-2.3365,-2.3325,-2.3242,-2.3224,-2.3193,-2.3101,-2.3097,-2.3056,-2.2976,-2.2957,-2.2924,-2.2845,-2.2793,-2.2772,-2.2789,-2.2767,-2.2763,-2.274,-2.281,-2.2818,-2.2825,-2.2847,-2.2856,-2.274,-2.274,-2.2739,-2.2738,0,-2.3419,-2.3392,-2.3398,-2.3324,-2.3294,-2.3283,-2.3199,-2.3179,-2.3127,-2.3072,-2.3048,-2.2982,-2.2928,-2.2919,-2.2867,-2.2891,-2.2875,-2.2828,-2.2771,-2.2845,-2.2864,-2.2872,-2.2749,-2.2747,-2.2745,-2.2744,0,0,-2.3573,-2.3454,-2.3457,-2.3423,-2.3338,-2.3315,-2.33,-2.3248,-2.3233,-2.318,-2.3166,-2.3116,-2.3072,-2.3037,-2.298,-2.2979,-2.3037,-2.2932,-2.2929,-2.2954,-2.306,-2.3097,-2.3108,-2.2999,-2.3,-2.3001,-2.3066,0,-2.3642,-2.361,-2.3535,-2.3527,-2.3501,-2.3413,-2.34,-2.3346,-2.3295,-2.3265,-2.3207,-2.3174,-2.3118,-2.3097,-2.3092,-2.3031,-2.3057,-2.3025,-2.2985,-2.2984,-2.3005,-2.3118,-2.3156,-2.322,-2.3073,-2.3074,-2.3075,0,-2.3718,-2.3672,-2.3661,-2.3579,-2.3565,-2.3555,-2.3501,-2.3474,-2.3412,-2.3374,-2.3336,-2.3273,-2.3252,-2.32,-2.317,-2.3151,-2.3129,-2.3097,-2.3097,-2.3091,-2.3035,-2.3115,-2.3239,-2.3249,-2.3086,-2.3085,-2.3084,0,-2.3832,-2.3767,-2.3753,-2.3726,-2.3629,-2.3624,-2.3583,-2.3519,-2.3492,-2.3445,-2.3427,-2.3379,-2.3352,-2.3316,-2.3242,-2.321,-2.3221,-2.3162,-2.3189,-2.3191,-2.3196,-2.3197,-2.3319,-2.3181,-2.3181,-2.3181,-2.3181,0,-2.3917,-2.3914,-2.3803,-2.3794,-2.3788,-2.3703,-2.3699,-2.365,-2.3594,-2.3574,-2.3494,-2.3477,-2.3379,-2.3351,-2.3292,-2.3277,-2.3266,-2.3235,-2.322,-2.3242,-2.3247,-2.3228,-2.3222,-2.3184,-2.3183,-2.3183,-2.3182,0,-2.4043,-2.3969,-2.3947,-2.3858,-2.3835,-2.3835,-2.3758,-2.3746,-2.369,-2.3665,-2.3655,-2.3566,-2.3529,-2.3451,-2.3392,-2.3353,-2.3352,-2.3324,-2.3373,-2.3364,-2.3396,-2.3394,-2.3511,-2.3522,-2.3378,-2.3379,-2.338,0,-2.4103,-2.4099,-2.4009,-2.399,-2.3953,-2.3924,-2.3897,-2.3812,-2.3787,-2.3717,-2.3713,-2.367,-2.363,-2.3575,-2.3505,-2.346,-2.3431,-2.3474,-2.3423,-2.3447,-2.3432,-2.3434,-2.3433,-2.3486,-2.3488,-2.349,-2.3491,0,-2.4217,-2.418,-2.4145,-2.4097,-2.4067,-2.4025,-2.3978,-2.3967,-2.3872,-2.3848,-2.3809,-2.3779,-2.3719,-2.3677,-2.3621,-2.3578,-2.352,-2.3508,-2.3512,-2.3536,-2.3565,-2.355,-2.3405,-2.3506,-2.3504,-2.3503,-2.3502,-2.3502,-2.4311,-2.4304,-2.4241,-2.4204,-2.416,-2.4119,-2.4103,-2.4046,-2.4012,-2.3957,-2.3909,-2.3875,-2.3813,-2.3732,-2.3694,-2.3666,-2.3636,-2.3642,-2.3644,-2.3647,-2.3657,-2.3569,-2.3655,-2.3654,-2.3654,-2.3654,-2.3653,0,-2.4422,-2.4377,-2.4344,-2.4282,-2.4253,-2.4201,-2.4146,-2.4126,-2.4097,-2.4044,-2.4008,-2.3963,-2.3922,-2.385,-2.3803,-2.3794,-2.3766,-2.3785,-2.3785,-2.3776,-2.3685,-2.3687,-2.3808,-2.3808,-2.3808,-2.3808,-2.3808,-2.3808,-2.4476,-2.4461,-2.4418,-2.438,-2.4334,-2.4301,-2.4275,-2.4236,-2.4194,-2.4149,-2.4114,-2.4067,-2.4007,-2.3955,-2.3915,-2.3895,-2.3881,-2.3909,-2.3881,-2.3797,-2.3782,-2.3769,-2.377,-2.3907,-2.3907,-2.3974,-2.3974,-2.3975]}]]